Terminal Aerodrome Forecast
Issued by NWS Northern Indiana

Home | Current Version | Previous Version | Text Only | Print | Product List | Glossary Off
Versions: 1 2 3 4 5 6 7 8 9 10 11 12 13 14 15 16 17 18

000
FTUS43 KIWX 020533
TAFFWA
TAF
KFWA 020533Z 0206/0306 08012KT 6SM BR SCT008 OVC015
      TEMPO 0206/0208 BKN008 OVC015
     FM020800 35010KT 3SM BR OVC003
     FM021400 04008KT 5SM BR OVC008
     FM021900 05008KT P6SM OVC020=

USA.gov is the U.S. government's official web portal to all federal, state and local government web resources and services.